Hourly Weather Ruda

Today, 10 April, Saturday

Time Temperature Precipitation Wind Pressure Humidity
00:00 +3°C° 0 mm 5 mps 750 mmHg 63%
01:00 +2°C° 0 mm 5 mps 750 mmHg 65%
02:00 +2°C° 0 mm 5 mps 749 mmHg 67%
03:00 +3°C° 0 mm 4 mps 749 mmHg 69%
04:00 +1°C° 0 mm 4 mps 749 mmHg 71%
05:00 +1°C° 0 mm 4 mps 749 mmHg 73%
06:00 +3°C° 0 mm 4 mps 749 mmHg 71%
07:00 +2°C° 0 mm 5 mps 749 mmHg 68%
08:00 +3°C° 0 mm 5 mps 749 mmHg 65%
09:00 +6°C° 0 mm 5 mps 749 mmHg 60%
10:00 +8°C° 0 mm 6 mps 749 mmHg 55%
11:00 +9°C° 0 mm 6 mps 749 mmHg 50%
12:00 +11°C° 0 mm 6 mps 749 mmHg 48%
13:00 +13°C° 0 mm 6 mps 749 mmHg 46%
14:00 +14°C° 0 mm 6 mps 749 mmHg 44%
15:00 +14°C° 0 mm 5 mps 749 mmHg 46%
16:00 +14°C° 0 mm 5 mps 749 mmHg 49%
17:00 +13°C° 0 mm 4 mps 749 mmHg 51%
18:00 +12°C° 0 mm 4 mps 749 mmHg 55%
19:00 +11°C° 0 mm 4 mps 749 mmHg 59%
20:00 +10°C° 0 mm 3 mps 749 mmHg 64%
21:00 +10°C° 0 mm 3 mps 750 mmHg 65%
22:00 +9°C° 0 mm 3 mps 750 mmHg 67%
23:00 +9°C° 0 mm 3 mps 750 mmHg 68%

Tomorrow, 11 April, Sunday

Time Temperature Precipitation Wind Pressure Humidity
00:00 +8°C° 0 mm 3 mps 750 mmHg 71%
01:00 +7°C° 0 mm 3 mps 751 mmHg 74%
02:00 +7°C° 0 mm 3 mps 751 mmHg 77%
03:00 +7°C° 0 mm 3 mps 751 mmHg 77%
04:00 +5°C° 0 mm 3 mps 751 mmHg 78%
05:00 +5°C° 0 mm 3 mps 752 mmHg 79%
06:00 +7°C° 0 mm 3 mps 752 mmHg 76%
07:00 +8°C° 0 mm 3 mps 752 mmHg 73%
08:00 +8°C° 0 mm 4 mps 753 mmHg 70%
09:00 +10°C° 0 mm 4 mps 753 mmHg 64%
10:00 +12°C° 0 mm 4 mps 753 mmHg 59%
11:00 +14°C° 0 mm 5 mps 753 mmHg 54%
12:00 +14°C° 0 mm 5 mps 753 mmHg 49%
13:00 +15°C° 0 mm 5 mps 753 mmHg 45%
14:00 +16°C° 0 mm 6 mps 753 mmHg 41%
15:00 +16°C° 0 mm 6 mps 753 mmHg 43%
16:00 +15°C° 0 mm 5 mps 753 mmHg 44%
17:00 +15°C° 0 mm 5 mps 753 mmHg 46%
18:00 +13°C° 0 mm 5 mps 753 mmHg 50%
19:00 +12°C° 0 mm 4 mps 753 mmHg 54%
20:00 +10°C° 0 mm 4 mps 753 mmHg 59%
21:00 +10°C° 0 mm 4 mps 753 mmHg 58%
22:00 +8°C° 0 mm 4 mps 753 mmHg 58%
23:00 +8°C° 0 mm 5 mps 753 mmHg 58%

Day after tomorrow, 12 April, Monday

Time Temperature Precipitation Wind Pressure Humidity
00:00 +7°C° 0 mm 5 mps 753 mmHg 59%
01:00 +7°C° 0 mm 4 mps 753 mmHg 59%
02:00 +7°C° 0 mm 4 mps 753 mmHg 60%
03:00 +6°C° 0 mm 4 mps 753 mmHg 61%
04:00 +5°C° 0 mm 4 mps 753 mmHg 62%
05:00 +5°C° 0 mm 4 mps 753 mmHg 64%
06:00 +5°C° 0 mm 4 mps 753 mmHg 62%
07:00 +6°C° 0 mm 4 mps 752 mmHg 60%
08:00 +7°C° 0 mm 5 mps 752 mmHg 58%
09:00 +8°C° 0 mm 5 mps 752 mmHg 53%
10:00 +10°C° 0 mm 6 mps 752 mmHg 48%
11:00 +11°C° 0 mm 6 mps 752 mmHg 43%
12:00 +13°C° 0 mm 6 mps 751 mmHg 43%
13:00 +13°C° 0 mm 6 mps 751 mmHg 42%
14:00 +14°C° 0 mm 5 mps 751 mmHg 42%
15:00 +14°C° 0 mm 5 mps 750 mmHg 45%
16:00 +13°C° 0 mm 4 mps 750 mmHg 49%
17:00 +13°C° 0 mm 3 mps 750 mmHg 52%
18:00 +12°C° 0 mm 3 mps 750 mmHg 55%
19:00 +13°C° 0 mm 2 mps 750 mmHg 58%
20:00 +12°C° 0 mm 2 mps 750 mmHg 61%
21:00 +12°C° 0 mm 2 mps 750 mmHg 62%
22:00 +12°C° 0 mm 2 mps 749 mmHg 64%
23:00 +10°C° 0 mm 2 mps 749 mmHg 65%

13 April, Tuesday

Time Temperature Precipitation Wind Pressure Humidity
00:00 +10°C° 0.1 mm 2 mps 749 mmHg 68%
01:00 +10°C° 0.1 mm 2 mps 749 mmHg 71%
02:00 +9°C° 0.1 mm 2 mps 749 mmHg 75%
03:00 +10°C° 0 mm 1 mps 749 mmHg 77%
04:00 +10°C° 0 mm 1 mps 749 mmHg 79%
05:00 +10°C° 0 mm 1 mps 749 mmHg 82%
06:00 +11°C° 0 mm 1 mps 749 mmHg 81%
07:00 +11°C° 0 mm 1 mps 749 mmHg 80%
08:00 +12°C° 0 mm 1 mps 749 mmHg 79%
09:00 +13°C° 0 mm 1 mps 749 mmHg 76%
10:00 +13°C° 0 mm 2 mps 749 mmHg 74%
11:00 +14°C° 0 mm 2 mps 749 mmHg 71%
12:00 +13°C° 0 mm 3 mps 749 mmHg 71%
13:00 +13°C° 0 mm 3 mps 749 mmHg 71%
14:00 +13°C° 0 mm 4 mps 749 mmHg 71%
15:00 +11°C° 0.1 mm 4 mps 749 mmHg 76%
16:00 +9°C° 0.1 mm 5 mps 749 mmHg 80%
17:00 +7°C° 0.1 mm 5 mps 749 mmHg 84%
18:00 +6°C° 0.7 mm 5 mps 749 mmHg 86%
19:00 +5°C° 0.7 mm 5 mps 749 mmHg 89%
20:00 +5°C° 0.7 mm 5 mps 750 mmHg 91%
21:00 +3°C° 0.4 mm 5 mps 749 mmHg 92%
22:00 +3°C° 0.4 mm 5 mps 749 mmHg 92%
23:00 +3°C° 0.4 mm 5 mps 749 mmHg 93%

14 April, Wednesday

Time Temperature Precipitation Wind Pressure Humidity
00:00 +3°C° 0.3 mm 5 mps 749 mmHg 93%
01:00 +3°C° 0.3 mm 5 mps 749 mmHg 93%
02:00 +3°C° 0.3 mm 5 mps 748 mmHg 93%
03:00 +2°C° 0.1 mm 5 mps 748 mmHg 93%
04:00 +2°C° 0.1 mm 5 mps 748 mmHg 93%
05:00 +2°C° 0.1 mm 5 mps 748 mmHg 93%
06:00 +3°C° 0 mm 5 mps 748 mmHg 92%
07:00 +3°C° 0 mm 5 mps 748 mmHg 90%
08:00 +5°C° 0 mm 5 mps 748 mmHg 89%
09:00 +6°C° 0 mm 5 mps 747 mmHg 85%
10:00 +8°C° 0 mm 5 mps 747 mmHg 81%
11:00 +9°C° 0 mm 5 mps 747 mmHg 77%
12:00 +9°C° 0.1 mm 5 mps 747 mmHg 78%
13:00 +10°C° 0.1 mm 5 mps 747 mmHg 79%
14:00 +10°C° 0.1 mm 6 mps 746 mmHg 79%
15:00 +9°C° 0.6 mm 6 mps 746 mmHg 83%
16:00 +8°C° 0.6 mm 6 mps 746 mmHg 87%
17:00 +7°C° 0.6 mm 6 mps 746 mmHg 91%
18:00 +7°C° 0.2 mm 6 mps 746 mmHg 91%
19:00 +7°C° 0.2 mm 6 mps 746 mmHg 92%
20:00 +5°C° 0.2 mm 6 mps 747 mmHg 93%
21:00 +6°C° 0.2 mm 5 mps 747 mmHg 93%
22:00 +7°C° 0.2 mm 5 mps 747 mmHg 94%
23:00 +7°C° 0.2 mm 4 mps 747 mmHg 95%

15 April, Thursday

Time Temperature Precipitation Wind Pressure Humidity
00:00 +7°C° 0.1 mm 4 mps 747 mmHg 94%
01:00 +7°C° 0.1 mm 4 mps 747 mmHg 94%
02:00 +7°C° 0.1 mm 4 mps 747 mmHg 94%
03:00 +7°C° 0.1 mm 4 mps 747 mmHg 94%
04:00 +6°C° 0.1 mm 4 mps 747 mmHg 94%
05:00 +6°C° 0.1 mm 4 mps 747 mmHg 94%
06:00 +7°C° 0 mm 4 mps 748 mmHg 92%
07:00 +7°C° 0 mm 4 mps 748 mmHg 90%
08:00 +8°C° 0 mm 5 mps 748 mmHg 87%
09:00 +9°C° 0.1 mm 5 mps 749 mmHg 84%
10:00 +10°C° 0.1 mm 5 mps 749 mmHg 80%
11:00 +12°C° 0.1 mm 5 mps 749 mmHg 77%
12:00 +12°C° 0.3 mm 5 mps 749 mmHg 75%
13:00 +12°C° 0.3 mm 5 mps 749 mmHg 73%
14:00 +13°C° 0.3 mm 5 mps 749 mmHg 72%
15:00 +12°C° 0.1 mm 5 mps 749 mmHg 72%
16:00 +11°C° 0.1 mm 6 mps 749 mmHg 73%
17:00 +10°C° 0.1 mm 7 mps 749 mmHg 74%
18:00 +9°C° 0 mm 7 mps 750 mmHg 75%
19:00 +8°C° 0 mm 7 mps 751 mmHg 77%
20:00 +6°C° 0 mm 7 mps 751 mmHg 78%
21:00 +5°C° 0 mm 6 mps 751 mmHg 74%
22:00 +5°C° 0 mm 6 mps 751 mmHg 70%
23:00 +5°C° 0 mm 6 mps 752 mmHg 66%
Show more